AZO955 URMT-ULAA

Flight info

Callsign AZO955
Flight time N/A
Altitude 36000
Route NEPAN1F NEPAN A963 NEPUT N82 AGNAR G901 OTKEN/K0850F350 G901 WGD/K0865F360 W21 NIMTA/K0859F350 T689 UNABI/K0861F360 T784 OLATU T747 TIPNA P988 GITOT/K0876F370 P988 RUPAD T825 ABELU ABELU3M
Aircraft B738/M-SDE2E3FGHIRWXY/LB1

Departure

Time 2026-04-22 22:17
Airport Stavropol Shpakovskoye Airport (URMT)

Arrival

Time N/A
Airport Talagi Airport (ULAA)
Time Latitude Longitude Altitude Speed Heading
2026-04-22 21:46 45.11016 42.10062 1493 ft 0 kts 75°
2026-04-22 22:09 45.11017 42.10066 1520 ft 1 kts 76°
2026-04-22 22:09 45.11017 42.10090 1484 ft 1 kts 114°
2026-04-22 22:10 45.11003 42.10099 1489 ft 4 kts 165°
2026-04-22 22:10 45.10980 42.10136 1481 ft 7 kts 104°
2026-04-22 22:10 45.10991 42.10228 1490 ft 12 kts 76°
2026-04-22 22:10 45.11015 42.10364 1490 ft 16 kts 76°
2026-04-22 22:11 45.11046 42.10536 1488 ft 20 kts 76°
2026-04-22 22:11 45.11068 42.10659 1493 ft 10 kts 75°
2026-04-22 22:11 45.11041 42.10735 1483 ft 9 kts 159°
2026-04-22 22:11 45.10974 42.10761 1488 ft 7 kts 166°
2026-04-22 22:12 45.10965 42.10764 1488 ft 0 kts 166°
2026-04-22 22:12 45.10933 42.10776 1486 ft 8 kts 166°
2026-04-22 22:13 45.10875 42.10813 1488 ft 9 kts 126°
2026-04-22 22:13 45.10869 42.10937 1487 ft 17 kts 76°
2026-04-22 22:13 45.10903 42.11131 1484 ft 24 kts 76°
2026-04-22 22:13 45.10949 42.11386 1488 ft 29 kts 74°
2026-04-22 22:14 45.11004 42.11681 1484 ft 33 kts 76°
2026-04-22 22:14 45.11061 42.12010 1486 ft 35 kts 76°
2026-04-22 22:14 45.11123 42.12349 1494 ft 37 kts 75°
2026-04-22 22:14 45.11185 42.12683 1480 ft 25 kts 71°
2026-04-22 22:15 45.11248 42.12832 1491 ft 8 kts 108°
2026-04-22 22:15 45.11224 42.12845 1490 ft 3 kts 202°
2026-04-22 22:15 45.11213 42.12814 1493 ft 5 kts 257°
2026-04-22 22:15 45.11211 42.12804 1482 ft 1 kts 259°
2026-04-22 22:16 45.11200 42.12740 1481 ft 17 kts 255°
2026-04-22 22:16 45.11095 42.12185 1496 ft 99 kts 256°
2026-04-22 22:16 45.10856 42.10899 1495 ft 169 kts 255°
2026-04-22 22:16 45.10497 42.09124 1961 ft 194 kts 254°
2026-04-22 22:17 45.10150 42.07207 2824 ft 209 kts 257°
2026-04-22 22:17 45.09800 42.05183 3534 ft 212 kts 257°
2026-04-22 22:17 45.09446 42.03210 4168 ft 202 kts 257°
2026-04-22 22:17 45.09101 42.01313 4736 ft 199 kts 257°
2026-04-22 22:18 45.08755 41.99426 5287 ft 198 kts 257°
2026-04-22 22:18 45.08562 41.97527 5839 ft 194 kts 277°
2026-04-22 22:18 45.08958 41.95674 6149 ft 207 kts 298°
2026-04-22 22:18 45.09915 41.94079 6370 ft 224 kts 319°
2026-04-22 22:19 45.11364 41.93089 6700 ft 238 kts 338°
2026-04-22 22:19 45.12985 41.92475 7119 ft 244 kts 341°
2026-04-22 22:19 45.14654 41.91897 7544 ft 249 kts 340°
2026-04-22 22:19 45.16346 41.91305 7967 ft 253 kts 340°
2026-04-22 22:20 45.18135 41.91135 8351 ft 269 kts
2026-04-22 22:20 45.19866 41.92290 8749 ft 283 kts 33°
2026-04-22 22:20 45.20901 41.93437 9068 ft 287 kts 36°
2026-04-22 22:20 45.22956 41.95860 9679 ft 293 kts 37°
2026-04-22 22:21 45.24527 41.97738 10101 ft 297 kts 37°
2026-04-22 22:21 45.26113 41.99626 10554 ft 299 kts 37°
2026-04-22 22:21 45.27193 42.00906 10872 ft 300 kts 37°
2026-04-22 22:21 45.28789 42.02790 11322 ft 303 kts 37°
2026-04-22 22:22 45.30421 42.04709 11769 ft 308 kts 37°
2026-04-22 22:22 45.32135 42.06718 11927 ft 329 kts 37°
2026-04-22 22:22 45.33956 42.08851 12104 ft 349 kts 37°
2026-04-22 22:22 45.35881 42.11107 12281 ft 369 kts 37°
2026-04-22 22:23 45.37911 42.13490 12447 ft 388 kts 37°
2026-04-22 22:23 45.40037 42.15991 12684 ft 403 kts 37°
2026-04-22 22:23 45.42212 42.18555 13177 ft 409 kts 37°
2026-04-22 22:23 45.44413 42.21151 13815 ft 413 kts 37°
2026-04-22 22:24 45.46641 42.23777 14377 ft 417 kts 37°
2026-04-22 22:24 45.48892 42.26429 14910 ft 421 kts 36°
2026-04-22 22:24 45.49736 42.27355 15103 ft 422 kts 31°
2026-04-22 22:24 45.52344 42.29179 15635 ft 417 kts 12°
2026-04-22 22:25 45.55129 42.30358 16247 ft 419 kts 11°
2026-04-22 22:25 45.57944 42.31513 16797 ft 423 kts 10°
2026-04-22 22:25 45.60785 42.32683 17334 ft 427 kts 10°
2026-04-22 22:25 45.63656 42.33884 17889 ft 431 kts 11°
2026-04-22 22:26 45.66543 42.35112 18415 ft 435 kts 11°
2026-04-22 22:26 45.69460 42.36367 18889 ft 439 kts 11°
2026-04-22 22:26 45.72392 42.37637 19362 ft 443 kts 11°
2026-04-22 22:26 45.75353 42.38924 19821 ft 446 kts 11°
2026-04-22 22:27 45.78335 42.40223 20272 ft 450 kts 11°
2026-04-22 22:27 45.81338 42.41532 20707 ft 453 kts 11°
2026-04-22 22:27 45.84370 42.42855 21177 ft 456 kts 11°
2026-04-22 22:27 45.87418 42.44186 21608 ft 460 kts 11°
2026-04-22 22:28 45.90453 42.45512 22038 ft 463 kts 11°
2026-04-22 22:28 45.93545 42.46865 22452 ft 467 kts 11°
2026-04-22 22:28 45.96662 42.48231 22854 ft 470 kts 11°
2026-04-22 22:28 45.99803 42.49609 23270 ft 473 kts 10°
2026-04-22 22:29 46.02970 42.51000 23640 ft 477 kts 10°
2026-04-22 22:29 46.06152 42.52398 23995 ft 479 kts 10°
2026-04-22 22:29 46.09350 42.53768 24368 ft 478 kts
2026-04-22 22:29 46.12585 42.54745 24736 ft 475 kts
2026-04-22 22:30 46.15845 42.55514 25093 ft 475 kts
2026-04-22 22:30 46.19112 42.56214 25434 ft 476 kts
2026-04-22 22:30 46.22359 42.56901 25757 ft 478 kts
2026-04-22 22:30 46.25657 42.57615 26097 ft 480 kts
2026-04-22 22:31 46.28964 42.58356 26435 ft 482 kts
2026-04-22 22:31 46.32280 42.59119 26741 ft 484 kts
2026-04-22 22:31 46.35608 42.59897 27037 ft 486 kts
2026-04-22 22:31 46.38956 42.60688 27343 ft 488 kts
2026-04-22 22:32 46.42318 42.61486 27655 ft 490 kts
2026-04-22 22:32 46.45687 42.62286 27935 ft 491 kts
2026-04-22 22:32 46.49070 42.63089 28201 ft 494 kts
2026-04-22 22:32 46.52466 42.63895 28511 ft 494 kts
2026-04-22 22:33 46.55851 42.64702 28942 ft 493 kts 360°
2026-04-22 22:33 46.59227 42.65508 29387 ft 491 kts 360°
2026-04-22 22:33 46.62587 42.66310 29791 ft 490 kts 359°
2026-04-22 22:33 46.65958 42.67114 30123 ft 489 kts 360°
2026-04-22 22:34 46.69312 42.67914 30428 ft 489 kts
2026-04-22 22:34 46.72667 42.68714 30712 ft 488 kts
2026-04-22 22:34 46.76020 42.69515 31001 ft 488 kts
2026-04-22 22:34 46.79370 42.70317 31314 ft 487 kts
2026-04-22 22:35 46.82715 42.71120 31644 ft 486 kts
2026-04-22 22:35 46.86048 42.71920 31950 ft 485 kts
2026-04-22 22:35 46.89340 42.72711 32213 ft 485 kts
2026-04-22 22:35 46.92664 42.73511 32504 ft 484 kts
2026-04-22 22:36 46.95987 42.74312 32806 ft 483 kts
2026-04-22 22:36 46.99300 42.75110 33075 ft 482 kts
2026-04-22 22:36 47.02608 42.75909 33354 ft 482 kts
2026-04-22 22:36 47.05912 42.76708 33633 ft 481 kts
2026-04-22 22:37 47.09208 42.77506 33897 ft 480 kts
2026-04-22 22:37 47.12503 42.78304 34106 ft 480 kts
2026-04-22 22:37 47.15808 42.78814 34257 ft 475 kts 356°
2026-04-22 22:37 47.19084 42.78647 34412 ft 469 kts 347°
2026-04-22 22:38 47.22277 42.77782 34592 ft 464 kts 342°
2026-04-22 22:38 47.25429 42.76752 34756 ft 464 kts 342°
2026-04-22 22:38 47.28583 42.75716 34896 ft 465 kts 342°
2026-04-22 22:39 47.34933 42.73744 34898 ft 467 kts 343°
2026-04-22 22:39 47.41369 42.73224 34898 ft 478 kts
2026-04-22 22:39 47.44527 42.74860 34888 ft 486 kts 26°
2026-04-22 22:40 47.47313 42.77712 34922 ft 489 kts 36°
2026-04-22 22:40 47.52627 42.84051 34897 ft 491 kts 37°
2026-04-22 22:41 47.57970 42.90363 34883 ft 492 kts 36°
2026-04-22 22:41 47.63362 42.96606 34890 ft 493 kts 36°
2026-04-22 22:42 47.68785 43.02867 34886 ft 494 kts 36°
2026-04-22 22:42 47.74215 43.09164 34888 ft 495 kts 36°
2026-04-22 22:43 47.79658 43.15496 34885 ft 496 kts 36°
2026-04-22 22:43 47.85090 43.21854 34883 ft 497 kts 36°
2026-04-22 22:44 47.90488 43.28201 34873 ft 497 kts 36°
2026-04-22 22:44 47.95908 43.34591 34869 ft 497 kts 36°
2026-04-22 22:45 48.01328 43.40997 34870 ft 496 kts 36°
2026-04-22 22:45 48.06734 43.47401 34862 ft 496 kts 36°
2026-04-22 22:46 48.12125 43.53808 34859 ft 494 kts 37°
2026-04-22 22:46 48.17504 43.60216 34851 ft 493 kts 37°
2026-04-22 22:47 48.22866 43.66638 34853 ft 492 kts 37°
2026-04-22 22:47 48.28200 43.73097 34842 ft 492 kts 37°
2026-04-22 22:48 48.33508 43.79551 34846 ft 491 kts 37°
2026-04-22 22:48 48.38827 43.86029 34843 ft 491 kts 37°
2026-04-22 22:49 48.44089 43.92451 34834 ft 491 kts 37°
2026-04-22 22:49 48.49391 43.98940 34831 ft 491 kts 37°
2026-04-22 22:50 48.54695 44.05451 34819 ft 491 kts 37°
2026-04-22 22:50 48.59994 44.11973 34811 ft 491 kts 38°
2026-04-22 22:51 48.65295 44.18515 34806 ft 491 kts 38°
2026-04-22 22:51 48.70555 44.25026 34802 ft 492 kts 38°
2026-04-22 22:52 48.75990 44.31298 34791 ft 489 kts 26°
2026-04-22 22:52 48.79096 44.33301 34814 ft 484 kts 13°
2026-04-22 22:52 48.82365 44.34373 34802 ft 479 kts
2026-04-22 22:53 48.88965 44.34351 34811 ft 474 kts 354°
2026-04-22 22:53 48.95576 44.34035 34838 ft 477 kts 354°
2026-04-22 22:53 48.98897 44.33906 34987 ft 478 kts 355°
2026-04-22 22:54 49.02218 44.33799 35211 ft 476 kts 355°
2026-04-22 22:54 49.05535 44.33708 35450 ft 475 kts 355°
2026-04-22 22:54 49.08842 44.33625 35644 ft 475 kts 355°
2026-04-22 22:54 49.12145 44.33544 35768 ft 475 kts 355°
2026-04-22 22:55 49.15419 44.33463 35794 ft 477 kts 355°
2026-04-22 22:55 49.25367 44.33212 35799 ft 475 kts 355°
2026-04-22 22:56 49.31966 44.33043 35779 ft 474 kts 355°
2026-04-22 22:56 49.35250 44.32959 35946 ft 473 kts 354°
2026-04-22 22:56 49.38532 44.32874 35901 ft 473 kts 355°
2026-04-22 22:57 49.45126 44.32703 35799 ft 473 kts 355°
2026-04-22 22:57 49.51693 44.32533 35785 ft 471 kts 355°
2026-04-22 22:58 49.58233 44.32430 35770 ft 470 kts 357°
2026-04-22 22:58 49.64772 44.32921 35778 ft 469 kts 360°
2026-04-22 22:59 49.71278 44.33605 35772 ft 468 kts 360°
2026-04-22 22:59 49.77772 44.34248 35774 ft 467 kts 360°
2026-04-22 23:00 49.84277 44.34842 35772 ft 468 kts 359°
2026-04-22 23:00 49.90749 44.35417 35766 ft 469 kts 359°
2026-04-22 23:01 49.97269 44.35997 35771 ft 470 kts 359°
2026-04-22 23:01 50.03816 44.36583 35769 ft 472 kts 360°
2026-04-22 23:02 50.10363 44.37172 35766 ft 473 kts 360°
2026-04-22 23:02 50.16953 44.37767 35765 ft 474 kts 360°
2026-04-22 23:03 50.23531 44.38362 35759 ft 475 kts 360°
2026-04-22 23:03 50.30128 44.38961 35759 ft 475 kts
2026-04-22 23:04 50.36726 44.39562 35751 ft 474 kts
2026-04-22 23:04 50.43312 44.40163 35750 ft 473 kts
2026-04-22 23:05 50.49885 44.40765 35744 ft 472 kts
2026-04-22 23:05 50.56432 44.41366 35749 ft 471 kts
2026-04-22 23:06 50.62973 44.41967 35735 ft 470 kts
2026-04-22 23:06 50.69491 44.42569 35742 ft 468 kts
2026-04-22 23:07 50.75991 44.43170 35738 ft 468 kts
2026-04-22 23:07 50.82482 44.43772 35741 ft 467 kts
2026-04-22 23:08 50.88978 44.44376 35740 ft 467 kts
2026-04-22 23:08 50.95459 44.44981 35738 ft 467 kts
2026-04-22 23:09 51.01903 44.45584 35733 ft 467 kts
2026-04-22 23:09 51.08378 44.46192 35735 ft 467 kts
2026-04-22 23:10 51.14867 44.46803 35730 ft 467 kts
2026-04-22 23:10 51.21333 44.48151 35730 ft 469 kts
2026-04-22 23:11 51.27753 44.50071 35727 ft 470 kts
2026-04-22 23:11 51.33100 44.51659 35721 ft 470 kts
2026-04-22 23:12 51.39543 44.53496 35723 ft 470 kts
2026-04-22 23:12 51.45984 44.55299 35718 ft 470 kts
2026-04-22 23:13 51.52432 44.57108 35714 ft 470 kts
2026-04-22 23:13 51.58865 44.58921 35709 ft 470 kts
2026-04-22 23:14 51.65303 44.60744 35708 ft 469 kts
2026-04-22 23:14 51.71736 44.62569 35709 ft 469 kts
2026-04-22 23:15 51.78162 44.64396 35706 ft 468 kts
2026-04-22 23:15 51.84579 44.66224 35712 ft 468 kts
2026-04-22 23:16 51.90988 44.68055 35693 ft 467 kts
2026-04-22 23:16 51.91816 44.68292 35695 ft 467 kts
2026-04-22 23:17 51.97237 44.69847 35695 ft 467 kts
2026-04-22 23:17 52.03637 44.71687 35698 ft 466 kts
2026-04-22 23:18 52.10017 44.73526 35686 ft 466 kts
2026-04-22 23:18 52.16402 44.75372 35689 ft 465 kts
2026-04-22 23:19 52.22776 44.77219 35677 ft 465 kts
2026-04-22 23:19 52.29141 44.79066 35682 ft 465 kts
2026-04-22 23:20 52.35519 44.80922 35670 ft 465 kts
2026-04-22 23:20 52.41838 44.82766 35669 ft 464 kts
2026-04-22 23:21 52.48221 44.84635 35663 ft 464 kts
2026-04-22 23:21 52.54573 44.86501 35668 ft 464 kts
2026-04-22 23:22 52.60934 44.88374 35669 ft 464 kts
2026-04-22 23:22 52.67290 44.90252 35661 ft 464 kts
2026-04-22 23:23 52.73647 44.92136 35649 ft 464 kts
2026-04-22 23:23 52.79953 44.94010 35648 ft 463 kts
2026-04-22 23:24 52.84648 44.95414 35647 ft 463 kts
2026-04-22 23:24 52.91011 44.97322 35643 ft 463 kts
2026-04-22 23:25 52.97369 44.98966 35640 ft 462 kts
2026-04-22 23:25 53.03758 45.00197 35632 ft 462 kts
2026-04-22 23:26 53.10134 45.01518 35635 ft 462 kts
2026-04-22 23:26 53.16478 45.03145 35626 ft 462 kts
2026-04-22 23:27 53.22811 45.05059 35623 ft 462 kts
2026-04-22 23:27 53.29151 45.06893 35622 ft 462 kts
2026-04-22 23:28 53.35448 45.08673 35617 ft 462 kts
2026-04-22 23:28 53.41788 45.10470 35613 ft 462 kts
2026-04-22 23:29 53.48168 45.12289 35608 ft 462 kts
2026-04-22 23:29 53.54501 45.14105 35605 ft 462 kts
2026-04-22 23:30 53.60818 45.15926 35597 ft 462 kts
2026-04-22 23:30 53.67154 45.17758 35598 ft 462 kts
2026-04-22 23:31 53.73496 45.19597 35593 ft 462 kts
2026-04-22 23:31 53.79835 45.21482 35583 ft 462 kts
2026-04-22 23:32 53.86156 45.23514 35576 ft 462 kts
2026-04-22 23:32 53.92467 45.25558 35566 ft 462 kts
2026-04-22 23:33 53.98785 45.27590 35561 ft 462 kts
2026-04-22 23:33 54.05120 45.29627 35553 ft 462 kts
2026-04-22 23:34 54.11398 45.31653 35556 ft 462 kts
2026-04-22 23:34 54.17723 45.33688 35555 ft 462 kts
2026-04-22 23:35 54.24035 45.35722 35559 ft 462 kts
2026-04-22 23:35 54.30357 45.37766 35553 ft 462 kts
2026-04-22 23:36 54.36671 45.39816 35558 ft 462 kts
2026-04-22 23:36 54.42978 45.41870 35550 ft 462 kts
2026-04-22 23:37 54.49298 45.43935 35549 ft 462 kts
2026-04-22 23:37 54.55610 45.46004 35543 ft 462 kts
2026-04-22 23:38 54.61934 45.48083 35550 ft 462 kts
2026-04-22 23:38 54.68242 45.50163 35546 ft 462 kts
2026-04-22 23:39 54.74585 45.50978 35544 ft 457 kts 348°
2026-04-22 23:39 54.80327 45.46825 35551 ft 451 kts 324°
2026-04-22 23:40 54.85443 45.40505 35536 ft 452 kts 323°
2026-04-22 23:40 54.90546 45.34132 35527 ft 453 kts 323°
2026-04-22 23:41 54.95697 45.27807 35524 ft 453 kts 323°
2026-04-22 23:41 55.00866 45.21499 35519 ft 454 kts 323°
2026-04-22 23:42 55.06031 45.15183 35520 ft 454 kts 323°
2026-04-22 23:42 55.11207 45.08828 35516 ft 454 kts 323°
2026-04-22 23:43 55.16371 45.02465 35510 ft 454 kts 323°
2026-04-22 23:43 55.21539 44.96075 35503 ft 454 kts 323°
2026-04-22 23:44 55.26659 44.89726 35502 ft 453 kts 323°
2026-04-22 23:44 55.31293 44.82362 35503 ft 449 kts 307°
2026-04-22 23:45 55.34509 44.73032 35507 ft 446 kts 294°
2026-04-22 23:45 55.37105 44.63137 35494 ft 446 kts 294°
2026-04-22 23:46 55.39692 44.53238 35488 ft 446 kts 294°
2026-04-22 23:46 55.41871 44.44996 35484 ft 446 kts 294°
2026-04-22 23:47 55.44937 44.33436 35485 ft 446 kts 294°
2026-04-22 23:47 55.47554 44.23528 35480 ft 446 kts 294°
2026-04-22 23:48 55.50153 44.13643 35477 ft 446 kts 294°
2026-04-22 23:48 55.52723 44.03822 35476 ft 446 kts 294°
2026-04-22 23:49 55.55317 43.93863 35472 ft 446 kts 294°